CW8306 Weather Reports


Display with metric or nautical units.
time (UTC)temp
F
wind
direction
speed
MPH
gust
MPH
rain 1hr
in
rain 24hr
in
rain mn
in
humidity
%
barometer
mb
20260506204156 44 97 3.0 8.0 0.00 0.00 0.00 48 1015.6
20260506203655 44 352 4.0 6.0 0.00 0.00 0.00 48 1015.4
20260506203152 43 73 2.0 3.0 0.00 0.00 0.00 49 1015.6
20260506202649 43 264 2.0 6.0 0.00 0.00 0.00 50 1015.7
20260506202145 44 310 2.0 5.0 0.00 0.00 0.00 49 1015.6
20260506201642 43 291 2.0 5.0 0.00 0.00 0.00 49 1015.7
20260506201138 43 21 5.0 9.0 0.00 0.00 0.00 50 1015.6
20260506200635 43 287 3.0 8.0 0.00 0.00 0.00 50 1015.8
20260506200132 44 276 3.0 7.0 0.00 0.00 0.00 49 1015.8
20260506195629 43 227 5.0 7.0 0.00 0.00 0.00 50 1015.8
20260506195125 43 280 2.0 7.0 0.00 0.00 0.00 49 1016.1
20260506194623 43 244 5.0 6.0 0.00 0.00 0.00 48 1015.8
20260506194119 43 241 4.0 7.0 0.00 0.00 0.00 48 1015.9
20260506193617 43 278 3.0 5.0 0.00 0.00 0.00 50 1015.8
20260506193114 42 246 3.0 7.0 0.00 0.00 0.00 51 1016.1
20260506192611 42 10 3.0 9.0 0.00 0.00 0.00 51 1015.9
20260506192106 41 243 1.0 7.0 0.00 0.00 0.00 52 1016.1
20260506191603 41 170 1.0 5.0 0.00 0.00 0.00 52 1016.3
20260506191059 41 283 2.0 5.0 0.00 0.00 0.00 51 1016.1
20260506190557 42 272 2.0 5.0 0.00 0.00 0.00 52 1016.5
20260506190053 41 269 1.0 3.0 0.00 0.00 0.00 51 1016.3
20260506185551 41 92 1.0 7.0 0.00 0.00 0.00 52 1016.1
20260506185047 41 63 3.0 3.0 0.00 0.00 0.00 52 1016.2
20260506184545 41 252 2.0 6.0 0.00 0.00 0.00 52 1016.2
20260506184042 41 73 2.0 3.0 0.00 0.00 0.00 52 1016.2
20260506183537 40 238 1.0 6.0 0.00 0.00 0.00 53 1016.5
20260506183034 41 12 4.0 7.0 0.00 0.00 0.00 52 1016.2
20260506182532 41 55 3.0 5.0 0.00 0.00 0.00 52 1016.2
20260506182029 41 258 2.0 6.0 0.00 0.00 0.00 51 1016.1
20260506181527 40 242 1.0 7.0 0.00 0.00 0.00 51 1016.3
20260506181023 41 250 2.0 5.0 0.00 0.00 0.00 53 1016.4
20260506180520 41 8 7.0 10.0 0.00 0.00 0.00 52 1016.2
20260506180017 41 24 3.0 8.0 0.00 0.00 0.00 53 1016.6
20260506175513 41 354 3.0 5.0 0.00 0.00 0.00 53 1016.5
20260506175009 40 233 3.0 8.0 0.00 0.00 0.00 52 1016.6
20260506174508 40 44 3.0 5.0 0.00 0.00 0.00 54 1016.4
20260506174004 40 4 4.0 7.0 0.00 0.00 0.00 53 1016.6
20260506173502 40 144 1.0 5.0 0.00 0.00 0.00 54 1016.5
20260506172958 40 294 3.0 7.0 0.00 0.00 0.00 54 1016.6
20260506172456 39 198 3.0 9.0 0.00 0.00 0.00 55 1016.7
20260506171952 40 5 5.0 8.0 0.00 0.00 0.00 53 1016.6
20260506171449 39 215 2.0 5.0 0.00 0.00 0.00 55 1016.8
20260506170947 39 226 1.0 3.0 0.00 0.00 0.00 54 1016.9
20260506170443 39 341 2.0 6.0 0.00 0.00 0.00 55 1016.7
20260506165936 39 299 5.0 6.0 0.00 0.00 0.00 55 1016.9
20260506165434 39 325 3.0 6.0 0.00 0.00 0.00 55 1017.0
20260506164924 39 14 3.0 5.0 0.00 0.00 0.00 57 1016.9
20260506164421 39 3 3.0 6.0 0.00 0.00 0.00 55 1016.9
20260506163919 39 343 2.0 5.0 0.00 0.00 0.00 57 1017.0
20260506163413 39 353 5.0 8.0 0.00 0.00 0.00 56 1017.3
20260506162908 39 224 2.0 8.0 0.00 0.00 0.00 57 1017.1
20260506162406 38 275 1.0 9.0 0.00 0.00 0.00 58 1017.2
20260506161858 38 270 2.0 6.0 0.00 0.00 0.00 60 1017.2
20260506161356 38 17 3.0 6.0 0.00 0.00 0.00 62 1017.2
20260506160853 37 331 5.0 7.0 0.00 0.00 0.00 63 1017.2
20260506160350 37 21 2.0 5.0 0.00 0.00 0.00 64 1017.3
20260506155848 38 5 5.0 6.0 0.00 0.00 0.00 65 1017.6
20260506155345 37 212 1.0 6.0 0.00 0.00 0.00 68 1017.2
20260506153502 35 1 3.0 6.0 0.00 0.00 0.00 73 1017.7
20260506153000 35 182 3.0 5.0 0.00 0.00 0.00 76 1017.5
20260506152456 35 98 1.0 3.0 0.00 0.00 0.00 78 1017.5
20260506151954 35 38 2.0 3.0 0.00 0.00 0.00 78 1017.6
20260506151452 35 8 3.0 6.0 0.00 0.00 0.00 78 1017.6
20260506150949 35 307 0.0 5.0 0.00 0.00 0.00 80 1017.6
20260506150445 35 351 2.0 5.0 0.00 0.00 0.00 80 1017.6
20260506145942 34 47 1.0 3.0 0.00 0.00 0.00 81 1017.5
20260506145438 33 2 2.0 3.0 0.00 0.00 0.00 81 1017.5
20260506144936 33 221 0.0 2.0 0.00 0.00 0.00 82 1017.6
20260506144432 33 235 1.0 3.0 0.00 0.00 0.00 82 1017.7
20260506143931 32 337 3.0 5.0 0.00 0.00 0.00 82 1017.5
20260506143428 33 10 3.0 5.0 0.00 0.00 0.00 83 1017.7
20260506142926 32 340 2.0 3.0 0.00 0.00 0.00 83 1017.7
20260506142424 32 210 1.0 1.0 0.00 0.00 0.00 84 1017.7
20260506141921 32 166 2.0 2.0 0.00 0.00 0.00 84 1017.9
20260506141419 32 308 1.0 3.0 0.00 0.00 0.00 85 1017.7
20260506140918 32 224 1.0 1.0 0.00 0.00 0.00 86 1017.9
20260506140414 32 218 0.0 2.0 0.00 0.00 0.00 86 1017.7
20260506135911 32 226 0.0 2.0 0.00 0.00 0.00 86 1017.8
20260506135408 32 208 0.0 1.0 0.00 0.00 0.00 86 1017.8
20260506134904 31 233 0.0 1.0 0.00 0.00 0.00 86 1017.7
20260506134400 31 238 1.0 2.0 0.00 0.00 0.00 86 1017.7
20260506133857 31 235 1.0 2.0 0.00 0.00 0.00 86 1017.9
20260506133354 31 206 1.0 2.0 0.00 0.00 0.00 86 1017.7
20260506132850 31 18 3.0 3.0 0.00 0.00 0.00 86 1017.5
20260506132348 31 270 1.0 3.0 0.00 0.00 0.00 86 1017.4
20260506131846 31 168 1.0 3.0 0.00 0.00 0.00 86 1017.5
20260506131342 31 193 1.0 3.0 0.00 0.00 0.00 86 1017.7
20260506130839 31 345 1.0 1.0 0.00 0.00 0.00 86 1017.4
20260506130335 31 222 0.0 2.0 0.00 0.00 0.00 86 1017.6
20260506125833 31 222 1.0 2.0 0.00 0.00 0.00 85 1017.3
20260506125332 31 358 3.0 3.0 0.00 0.00 0.00 85 1017.4
20260506124830 31 356 1.0 7.0 0.00 0.00 0.00 84 1017.5
20260506124326 31 222 2.0 5.0 0.00 0.00 0.00 82 1017.4
20260506123824 32 241 3.0 3.0 0.00 0.00 0.00 81 1017.6
20260506123322 32 247 1.0 2.0 0.00 0.00 0.00 79 1017.5
20260506122819 32 301 2.0 5.0 0.00 0.00 0.00 78 1017.5
20260506122316 32 168 1.0 5.0 0.00 0.00 0.00 80 1017.4
20260506121814 32 231 1.0 3.0 0.00 0.00 0.00 82 1017.6
20260506121311 32 219 1.0 2.0 0.00 0.00 0.00 83 1017.2
20260506120808 32 233 1.0 6.0 0.00 0.00 0.00 83 1017.5
20260506120306 32 273 1.0 3.0 0.00 0.00 0.00 83 1017.3
20260506115803 32 267 3.0 3.0 0.00 0.00 0.00 82 1017.2
20260506115306 32 265 1.0 1.0 0.00 0.00 0.00 82 1017.1
20260506114759 32 200 1.0 3.0 0.00 0.00 0.00 81 1017.1
20260506114256 32 230 1.0 3.0 0.00 0.00 0.00 80 1017.2
20260506113755 32 282 1.0 1.0 0.00 0.00 0.00 80 1016.9
20260506113252 32 301 1.0 2.0 0.00 0.00 0.00 80 1017.2
20260506112748 32 253 1.0 3.0 0.00 0.00 0.00 80 1017.1
20260506112246 31 356 1.0 2.0 0.00 0.00 0.00 80 1017.1
20260506111743 31 272 1.0 3.0 0.00 0.00 0.00 80 1017.1
20260506111241 32 272 1.0 5.0 0.00 0.00 0.00 81 1017.0
20260506110738 32 344 1.0 3.0 0.00 0.00 0.00 81 1016.8
20260506110236 32 330 1.0 1.0 0.00 0.00 0.00 82 1017.0
20260506105732 32 244 3.0 6.0 0.00 0.00 0.00 82 1017.1
20260506105229 31 217 1.0 2.0 0.00 0.00 0.00 82 1017.0
20260506104727 31 221 0.0 6.0 0.00 0.00 0.00 83 1016.9
20260506104224 31 261 2.0 3.0 0.00 0.00 0.00 84 1017.1
20260506103721 32 221 1.0 1.0 0.00 0.00 0.00 85 1016.9
20260506103218 32 293 1.0 5.0 0.00 0.00 0.00 84 1017.0
20260506102716 32 274 0.0 2.0 0.00 0.00 0.00 85 1017.2
20260506102214 31 229 0.0 2.0 0.00 0.00 0.00 85 1017.1
20260506101710 31 223 0.0 0.0 0.00 0.00 0.00 84 1016.9
20260506101207 32 268 1.0 2.0 0.00 0.00 0.00 84 1016.8
20260506100705 32 252 0.0 2.0 0.00 0.00 0.00 84 1017.0
20260506100203 32 224 0.0 2.0 0.00 0.00 0.00 84 1016.9
20260506095701 32 226 0.0 2.0 0.00 0.00 0.00 84 1017.2
20260506095158 32 220 0.0 3.0 0.00 0.00 0.00 83 1017.0
20260506094655 32 273 1.0 3.0 0.00 0.00 0.00 83 1016.9
20260506094153 32 224 0.0 2.0 0.00 0.00 0.00 82 1017.0
20260506093651 32 248 1.0 3.0 0.00 0.00 0.00 81 1017.0
20260506093148 32 258 0.0 3.0 0.00 0.00 0.00 81 1017.1
20260506092646 32 220 0.0 1.0 0.00 0.00 0.00 81 1016.9
20260506092143 31 321 0.0 3.0 0.00 0.00 0.00 82 1017.3
20260506091640 31 226 0.0 1.0 0.00 0.00 0.00 83 1017.1
20260506091137 32 228 0.0 1.0 0.00 0.00 0.00 83 1016.9
20260506090636 32 217 0.0 2.0 0.00 0.00 0.00 83 1016.8
20260506090132 32 262 1.0 2.0 0.00 0.00 0.00 83 1016.8
20260506085629 32 203 0.0 1.0 0.00 0.00 0.00 83 1016.9
20260506085125 31 216 0.0 0.0 0.00 0.00 0.00 83 1016.8
20260506084622 31 206 0.0 1.0 0.00 0.00 0.00 83 1016.8
20260506084118 31 222 0.0 0.0 0.00 0.00 0.00 83 1016.8
20260506083616 32 206 0.0 1.0 0.00 0.00 0.00 84 1016.9
20260506083113 31 215 0.0 0.0 0.00 0.00 0.00 83 1016.8
20260506082610 31 214 0.0 0.0 0.00 0.00 0.00 83 1016.8
20260506082105 31 218 0.0 1.0 0.00 0.00 0.00 82 1016.8
20260506081603 31 229 0.0 2.0 0.00 0.00 0.00 82 1016.9
20260506081101 31 224 0.0 0.0 0.00 0.00 0.00 81 1016.8
20260506080559 31 301 0.0 1.0 0.00 0.00 0.00 81 1016.9
20260506073038 32 230 1.0 2.0 0.00 0.00 0.00 80 1016.7
20260506072536 32 219 0.0 2.0 0.00 0.00 0.00 80 1016.7
20260506072034 32 223 0.0 2.0 0.00 0.00 0.00 80 1016.9
20260506071531 32 218 0.0 1.0 0.00 0.00 0.00 80 1016.9
20260506071028 32 279 0.0 1.0 0.00 0.00 0.00 80 1016.8
20260506070525 32 233 0.0 1.0 0.00 0.00 0.00 80 1016.7
20260506062503 32 211 0.0 2.0 0.00 0.00 0.00 77 1016.7
20260506061959 32 301 1.0 2.0 0.00 0.00 0.00 77 1016.8
20260506061455 32 297 1.0 2.0 0.00 0.00 0.00 76 1016.7
20260506060953 32 307 1.0 2.0 0.00 0.00 0.00 76 1016.8
20260506060451 32 221 0.0 2.0 0.00 0.00 0.00 76 1016.9
20260506050920 33 251 1.0 1.0 0.00 0.00 0.00 73 1016.8
20260506050418 33 274 2.0 5.0 0.00 0.00 0.00 73 1016.9
20260506044908 33 345 2.0 6.0 0.00 0.00 0.00 72 1016.7
20260506044406 33 332 1.0 3.0 0.00 0.00 0.00 72 1016.8
20260506043903 34 236 1.0 2.0 0.00 0.00 0.00 72 1016.8
20260506043400 34 324 2.0 7.0 0.00 0.00 0.00 71 1016.8
20260506042858 34 56 1.0 2.0 0.00 0.00 0.00 71 1016.8
20260506042357 34 250 1.0 5.0 0.00 0.00 0.00 71 1016.7
20260506041855 35 277 3.0 7.0 0.00 0.00 0.00 71 1016.9
20260506041354 35 303 2.0 6.0 0.00 0.00 0.00 70 1016.6
20260506040849 35 225 2.0 5.0 0.00 0.00 0.00 70 1016.9
20260506040347 35 179 1.0 5.0 0.00 0.00 0.00 70 1016.6
20260506035843 35 196 1.0 7.0 0.00 0.00 0.00 69 1017.0
20260506035340 35 32 2.0 6.0 0.00 0.00 0.00 69 1016.5
20260506034837 35 306 4.0 9.0 0.00 0.00 0.00 69 1016.8
20260506034334 35 274 1.0 7.0 0.00 0.00 0.00 69 1016.9
20260506033831 35 324 4.0 6.0 0.00 0.00 0.00 69 1016.9
20260506033328 35 301 2.0 3.0 0.00 0.00 0.00 69 1016.7
20260506032825 35 182 1.0 3.0 0.00 0.00 0.00 69 1016.9
20260506032322 35 189 1.0 5.0 0.00 0.00 0.00 69 1016.8
20260506031819 35 131 2.0 3.0 0.00 0.00 0.00 69 1016.5
20260506031316 35 222 2.0 3.0 0.00 0.00 0.00 69 1016.7
20260506030814 36 211 0.0 5.0 0.00 0.00 0.00 68 1016.6
20260506030312 36 259 1.0 3.0 0.00 0.00 0.00 68 1016.7
20260506025808 36 303 3.0 6.0 0.00 0.00 0.00 67 1016.5
20260506025306 36 298 3.0 7.0 0.00 0.00 0.00 67 1016.5
20260506024802 36 219 1.0 2.0 0.00 0.00 0.00 67 1016.5
20260506024258 36 240 1.0 3.0 0.00 0.00 0.00 67 1016.2
20260506023754 36 341 0.0 5.0 0.00 0.00 0.00 67 1016.5
20260506023252 36 279 1.0 5.0 0.00 0.00 0.00 66 1016.3
20260506022748 36 285 2.0 6.0 0.00 0.00 0.00 66 1016.5
20260506022246 36 101 2.0 5.0 0.00 0.00 0.00 66 1016.2
20260506021744 36 175 2.0 7.0 0.00 0.00 0.00 65 1016.3
20260506021241 36 289 2.0 7.0 0.00 0.00 0.00 65 1016.2
20260506020737 36 224 2.0 6.0 0.00 0.00 0.00 65 1016.1
20260506020235 37 230 3.0 8.0 0.00 0.00 0.00 64 1016.1
20260506015733 37 318 3.0 6.0 0.00 0.00 0.00 64 1015.9
20260506015230 37 209 2.0 8.0 0.00 0.00 0.00 64 1016.1
20260506014727 37 240 1.0 3.0 0.00 0.00 0.00 65 1016.1
20260506014223 37 74 1.0 5.0 0.00 0.00 0.00 65 1016.2
20260506013721 37 299 1.0 3.0 0.00 0.00 0.00 65 1015.9
20260506013218 37 345 3.0 3.0 0.00 0.00 0.00 65 1015.8
20260506012714 37 315 1.0 3.0 0.00 0.00 0.00 65 1015.7
20260506012211 37 235 1.0 2.0 0.00 0.00 0.00 64 1015.7
20260506011708 37 301 2.0 5.0 0.00 0.00 0.00 64 1015.7
20260506011204 37 325 3.0 5.0 0.00 0.00 0.00 64 1015.7
20260506010703 37 231 1.0 5.0 0.00 0.00 0.00 63 1015.6
20260506010200 37 233 1.0 8.0 0.00 0.00 0.00 63 1015.5
20260506005657 37 356 4.0 7.0 0.00 0.00 0.00 63 1015.6
20260506005153 37 229 2.0 6.0 0.00 0.00 0.00 62 1015.4
20260506004649 38 296 4.0 7.0 0.00 0.00 0.00 62 1015.4
20260506004147 38 336 3.0 8.0 0.00 0.00 0.00 62 1015.5
20260506003643 38 278 3.0 6.0 0.00 0.00 0.00 61 1015.1
20260506003139 38 216 2.0 5.0 0.00 0.00 0.00 61 1015.4
20260506002636 38 277 2.0 7.0 0.00 0.00 0.00 61 1015.1
20260506002132 38 83 4.0 9.0 0.00 0.00 0.00 61 1015.2
20260506001627 38 213 1.0 6.0 0.00 0.00 0.00 61 1015.1
20260506001125 38 315 1.0 5.0 0.00 0.00 0.00 61 1015.4
20260506000622 38 227 2.0 6.0 0.00 0.00 0.00 62 1015.3
20260506000120 38 305 2.0 8.0 0.00 0.00 0.00 61 1015.1
20260505235618 38 247 1.0 3.0 0.00 0.00 0.00 62 1015.2
20260505235114 38 341 3.0 8.0 0.00 0.00 0.00 62 1015.1
20260505234612 38 258 3.0 6.0 0.00 0.00 0.00 61 1015.3
20260505234108 38 191 2.0 8.0 0.00 0.00 0.00 61 1015.0
20260505233606 38 226 1.0 5.0 0.00 0.00 0.00 62 1015.2
20260505233103 38 329 3.0 8.0 0.00 0.00 0.00 61 1015.2
20260505232601 38 301 2.0 8.0 0.00 0.00 0.00 61 1015.0
20260505232058 38 355 3.0 7.0 0.00 0.00 0.00 61 1015.2
20260505231554 38 286 2.0 5.0 0.00 0.00 0.00 61 1015.2
20260505231053 38 241 3.0 9.0 0.00 0.00 0.00 60 1015.1
20260505230550 38 298 4.0 6.0 0.00 0.00 0.00 61 1015.3
20260505230046 38 27 3.0 7.0 0.00 0.00 0.00 61 1014.8
20260505225544 38 236 2.0 7.0 0.00 0.00 0.00 62 1014.9
20260505225039 38 258 6.0 9.0 0.00 0.00 0.00 62 1015.0
20260505224537 38 127 4.0 8.0 0.00 0.00 0.00 61 1015.2
20260505224034 38 295 3.0 6.0 0.00 0.00 0.00 60 1015.1
20260505223531 38 22 3.0 5.0 0.00 0.00 0.00 59 1015.2
20260505223027 38 92 1.0 6.0 0.00 0.00 0.00 59 1015.1
20260505222523 38 226 2.0 7.0 0.00 0.00 0.00 60 1015.0
20260505222019 38 326 3.0 7.0 0.00 0.00 0.00 61 1015.1
20260505221517 38 338 1.0 7.0 0.00 0.00 0.00 61 1015.2
20260505221014 38 259 1.0 7.0 0.00 0.00 0.00 61 1015.3
20260505220511 38 216 2.0 3.0 0.00 0.00 0.00 60 1015.1
20260505220009 38 278 4.0 6.0 0.00 0.00 0.00 61 1015.0
20260505215507 37 311 5.0 7.0 0.00 0.00 0.00 61 1014.8
20260505215004 38 296 3.0 6.0 0.00 0.00 0.00 62 1015.0
20260505214502 38 222 2.0 6.0 0.00 0.00 0.00 61 1014.8
20260505213958 37 189 1.0 6.0 0.00 0.00 0.00 61 1015.1
20260505213456 37 230 2.0 3.0 0.00 0.00 0.00 62 1015.1
20260505212952 37 253 3.0 6.0 0.00 0.00 0.00 62 1015.1
20260505212449 38 244 3.0 5.0 0.00 0.00 0.00 61 1014.9
20260505211945 38 73 3.0 5.0 0.00 0.00 0.00 61 1015.0
20260505211443 38 197 3.0 6.0 0.00 0.00 0.00 61 1015.0
20260505210939 37 297 2.0 5.0 0.00 0.00 0.00 61 1015.0
20260505210437 37 267 7.0 8.0 0.00 0.00 0.00 61 1015.1
20260505205933 37 266 2.0 7.0 0.00 0.00 0.00 61 1014.8
20260505205432 37 299 4.0 7.0 0.00 0.00 0.00 60 1014.9
20260505204928 38 319 3.0 5.0 0.00 0.00 0.00 59 1014.8
20260505204426 38 221 2.0 5.0 0.00 0.00 0.00 60 1014.7